Location: Unspecified
(48.2082°N, 0.0000°E)
Time: 21:25:50
(UTC+00:00)

Transit 4A - Pass Details

Date: 18 June 2019
Orbit: 862 x 982 km, 66.8° (Epoch: 16 July)

Event Time Altitude Azimuth Distance (km) Brightness Sun altitude
Rises 17:21:43 0° 325° (NW) 3,696 11.7 23.6°
Reaches altitude 10° 17:24:19 10° 326° (NW) 2,741 11.1 23.2°
Maximum altitude 17:30:46 82° 55° (NE) 984 8.4 22.2°
Drops below altitude 10° 17:37:03 10° 143° (SE) 2,672 9.9 21.1°
Sets 17:39:33 0° 144° (SE) 3,597 10.5 20.7°
